Terminal Aerodrome Forecast
Issued by NWS Knoxville/Tri Cities, TN

Home | Current Version | Previous Version | Text Only | Print | Product List | Glossary On
Versions: 1 2 3 4 5 6 7 8 9 10 11 12 13 14 15 16 17 18 19 20 21 22 23 24 25 26 27 28 29 30
000
FTUS44 KMRX 282330
TAFCHA
TAF
KCHA 282330Z 2900/2924 32010KT P6SM SCT050
     FM290200 34003KT P6SM SCT150
     FM291400 35010KT P6SM SCT080
     FM291800 34010G18KT P6SM SCT250=

USA.gov is the U.S. government's official web portal to all federal, state and local government web resources and services.